#�ϑ�����,���ϕ���,���ϕ���,�ő啗��,�ő啗����������,�ő�u�ԕ���,�ő�u�ԕ�����������
#(�N����),(m/s)   ,(16����),(m/s)   ,(16����)        ,(m/s)       ,(16����)            
2015/9/7 0:01,1.2,10,1.2,7,2.4,12
2015/9/7 0:02,1.2,10,1.2,7,1.6,13
2015/9/7 0:03,1.3,11,1.3,11,1.4,13
2015/9/7 0:04,1.3,11,1.3,11,1.6,16
2015/9/7 0:05,1.3,12,1.3,11,1.1,14
2015/9/7 0:06,1.3,12,1.3,11,2.6,2
2015/9/7 0:07,1.3,12,1.3,11,1.1,2
2015/9/7 0:08,1.2,13,1.3,11,1.5,2
2015/9/7 0:09,1.1,14,1.2,11,2.2,15
2015/9/7 0:10,0.9,15,1.1,11,2.2,16
2015/9/7 0:11,0.8,16,0.9,11,1,3
2015/9/7 0:12,0.7,1,0.8,11,0.9,9
2015/9/7 0:13,0.7,3,0.7,11,2,3
2015/9/7 0:14,0.8,3,0.8,11,2.9,3
2015/9/7 0:15,0.9,3,0.9,12,1.8,16
2015/9/7 0:16,0.8,2,0.9,12,1.4,14
2015/9/7 0:17,0.8,1,0.8,12,0.9,11
2015/9/7 0:18,0.7,16,0.8,13,1,10
2015/9/7 0:19,0.7,16,0.7,14,1.5,13
2015/9/7 0:20,0.7,16,0.7,15,1.8,1
2015/9/7 0:21,0.8,16,0.8,3,3,7
2015/9/7 0:22,1,1,1,1,2.7,4
2015/9/7 0:23,1.1,1,1.1,1,3,6
2015/9/7 0:24,1.1,1,1.1,1,3,3
2015/9/7 0:25,1.1,1,1.1,1,1.6,4
2015/9/7 0:26,1.2,2,1.2,2,3.3,1
2015/9/7 0:27,1.3,2,1.3,2,2.7,3
2015/9/7 0:28,1.4,3,1.4,2,1.8,6
2015/9/7 0:29,1.4,3,1.4,2,2.7,7
2015/9/7 0:30,1.5,4,1.5,4,3.9,6
2015/9/7 0:31,1.6,4,1.6,4,4.2,4
2015/9/7 0:32,1.7,4,1.7,4,4.3,3
2015/9/7 0:33,1.6,3,1.7,4,2.1,3
2015/9/7 0:34,1.6,3,1.6,4,3.2,2
2015/9/7 0:35,1.8,3,1.8,3,4.9,4
2015/9/7 0:36,2.1,4,2.1,4,5.4,4
2015/9/7 0:37,2.3,4,2.3,4,6.1,3
2015/9/7 0:38,2.6,3,2.6,4,5.1,3
2015/9/7 0:39,2.6,3,2.6,4,2.4,16
2015/9/7 0:40,2.5,3,2.6,4,2.2,4
2015/9/7 0:41,2.4,2,2.5,4,2.5,2
2015/9/7 0:42,2.3,3,2.4,4,2.6,5
2015/9/7 0:43,2.3,3,2.3,4,1.4,2
2015/9/7 0:44,2.2,3,2.3,4,1.4,4
2015/9/7 0:45,1.9,2,2.2,4,1.3,15
2015/9/7 0:46,1.6,2,1.9,4,0.8,2
2015/9/7 0:47,1.2,2,1.6,4,1.5,14
2015/9/7 0:48,0.9,2,1.2,3,0.8,13
2015/9/7 0:49,0.9,2,0.9,3,1.9,11
2015/9/7 0:50,1,16,1,3,2.2,11
2015/9/7 0:51,1,13,1,3,2.2,12
2015/9/7 0:52,1,13,1,3,2.4,11
2015/9/7 0:53,1.2,12,1.2,3,3.2,11
2015/9/7 0:54,1.4,12,1.4,3,3.5,12
2015/9/7 0:55,1.5,12,1.5,2,3.3,12
2015/9/7 0:56,1.7,12,1.7,12,3.1,12
2015/9/7 0:57,1.9,12,1.9,12,2.2,13
2015/9/7 0:58,2,12,2,12,2.5,13
2015/9/7 0:59,2.2,12,2.2,12,2.6,12
2015/9/7 1:00,2.3,12,2.3,12,3.2,11
2015/9/7 1:01,2.3,12,2.3,12,3.1,11
2015/9/7 1:02,2.4,12,2.4,12,3.8,11
2015/9/7 1:03,2.3,12,2.4,12,2.9,13
2015/9/7 1:04,2.2,12,2.3,12,2.1,14
2015/9/7 1:05,2,12,2.2,12,1.9,15
2015/9/7 1:06,2,12,2,12,2.9,12
2015/9/7 1:07,2,12,2,12,2.4,12
2015/9/7 1:08,1.9,12,2,12,1.6,13
2015/9/7 1:09,1.7,12,1.8,12,1.3,7
2015/9/7 1:10,1.5,12,1.7,12,0.6,7
2015/9/7 1:11,1.3,12,1.4,12,0.5,15
2015/9/7 1:12,1,13,1.2,12,0.9,12
2015/9/7 1:13,0.9,13,1,12,0.6,16
2015/9/7 1:14,0.7,12,0.9,12,0.5,9
2015/9/7 1:15,0.7,12,0.7,12,0.5,10
2015/9/7 1:16,0.5,11,0.6,12,1.1,9
2015/9/7 1:17,0.5,11,0.5,12,1.1,10
2015/9/7 1:18,0.4,11,0.5,12,1,9
2015/9/7 1:19,0.4,12,0.4,12,1,15
2015/9/7 1:20,0.4,12,0.4,12,1.8,16
2015/9/7 1:21,0.6,12,0.6,12,2,15
2015/9/7 1:22,0.7,12,0.7,13,1.9,15
2015/9/7 1:23,0.8,12,0.8,13,1.8,13
2015/9/7 1:24,0.9,12,0.9,12,1.1,13
2015/9/7 1:25,0.9,13,0.9,12,1.8,15
2015/9/7 1:26,1,13,1,13,2,13
2015/9/7 1:27,1.1,14,1.1,14,3.8,15
2015/9/7 1:28,1.2,15,1.2,14,2.9,15
2015/9/7 1:29,1.3,15,1.3,15,2.4,2
2015/9/7 1:30,1.3,15,1.4,15,1.1,2
2015/9/7 1:31,1.2,15,1.3,15,0.4,8
2015/9/7 1:32,1,16,1.2,15,0.1,9
2015/9/7 1:33,0.9,2,1,15,1.1,6
2015/9/7 1:34,0.9,3,0.9,15,1.4,6
2015/9/7 1:35,0.9,3,0.9,15,1.5,3
2015/9/7 1:36,0.9,4,0.9,15,0.9,3
2015/9/7 1:37,0.7,4,0.8,15,0.9,3
2015/9/7 1:38,0.5,4,0.7,15,0.8,5
2015/9/7 1:39,0.5,5,0.5,15,1.3,7
2015/9/7 1:40,0.5,5,0.5,15,2.2,8
2015/9/7 1:41,0.7,5,0.7,15,2,8
2015/9/7 1:42,0.8,6,0.8,16,1.6,9
2015/9/7 1:43,0.7,6,0.8,2,1.1,8
2015/9/7 1:44,0.7,6,0.7,3,1.4,15
2015/9/7 1:45,0.7,6,0.8,3,1.8,15
2015/9/7 1:46,0.8,5,0.8,4,1.6,16
2015/9/7 1:47,0.9,4,0.9,6,1.8,15
2015/9/7 1:48,0.9,14,0.9,6,1.4,16
2015/9/7 1:49,0.9,14,0.9,6,1.3,7
2015/9/7 1:50,0.9,14,0.9,6,2,7
2015/9/7 1:51,0.9,14,0.9,6,2,7
2015/9/7 1:52,0.8,15,0.9,6,1.9,8
2015/9/7 1:53,0.8,1,0.8,6,0.8,7
2015/9/7 1:54,0.8,2,0.8,6,0.1,16
2015/9/7 1:55,0.7,4,0.8,6,0,8
2015/9/7 1:56,0.6,4,0.7,6,0.5,2
2015/9/7 1:57,0.5,5,0.6,4,0.9,5
2015/9/7 1:58,0.5,6,0.5,14,1.8,7
2015/9/7 1:59,0.6,6,0.6,14,1.8,7
2015/9/7 2:00,0.5,5,0.6,14,1.5,6
2015/9/7 2:01,0.5,5,0.5,14,1.9,5
2015/9/7 2:02,0.7,5,0.7,15,2.5,4
2015/9/7 2:03,0.9,4,0.9,4,3.9,4
2015/9/7 2:04,1.2,4,1.2,4,4.4,4
2015/9/7 2:05,1.5,4,1.5,4,3.7,3
2015/9/7 2:06,1.6,4,1.6,4,2.4,4
2015/9/7 2:07,1.7,4,1.7,5,2.5,6
2015/9/7 2:08,1.7,4,1.8,4,1.4,7
2015/9/7 2:09,1.7,5,1.7,4,1.3,7
2015/9/7 2:10,1.7,5,1.7,4,1.5,7
2015/9/7 2:11,1.7,5,1.7,4,1.6,6
2015/9/7 2:12,1.5,4,1.7,4,1,5
2015/9/7 2:13,1.3,4,1.5,4,1.3,6
2015/9/7 2:14,1.2,5,1.3,4,2.4,5
2015/9/7 2:15,1.1,5,1.2,4,1.8,6
2015/9/7 2:16,1,6,1,4,1.3,8
2015/9/7 2:17,0.8,6,1,4,2.2,9
2015/9/7 2:18,0.9,6,0.9,4,1.1,9
2015/9/7 2:19,0.9,7,0.9,5,1.6,9
2015/9/7 2:20,0.9,8,0.9,5,2.7,9
2015/9/7 2:21,0.9,8,0.9,5,3.1,9
2015/9/7 2:22,1.1,8,1.1,4,4.4,9
2015/9/7 2:23,1.2,9,1.2,4,3.6,9
2015/9/7 2:24,1.1,9,1.2,5,2.6,10
2015/9/7 2:25,1.2,9,1.2,8,3.3,9
2015/9/7 2:26,1.4,9,1.4,9,3.6,10
2015/9/7 2:27,1.6,10,1.6,10,3.3,10
2015/9/7 2:28,1.8,10,1.8,10,3.7,11
2015/9/7 2:29,2.1,10,2.1,10,4.3,10
2015/9/7 2:30,2.2,10,2.2,10,4.7,10
2015/9/7 2:31,2.5,10,2.5,10,5.8,9
2015/9/7 2:32,2.5,10,2.5,10,3.9,11
2015/9/7 2:33,2.5,10,2.5,10,1.4,8
2015/9/7 2:34,2.6,10,2.6,10,3.9,9
2015/9/7 2:35,2.6,10,2.6,10,4.3,9
2015/9/7 2:36,2.6,10,2.6,10,3.3,8
2015/9/7 2:37,2.6,10,2.6,10,5.1,9
2015/9/7 2:38,2.6,10,2.6,10,4.7,9
2015/9/7 2:39,2.5,10,2.5,10,3.3,9
2015/9/7 2:40,2.4,9,2.4,10,4.3,9
2015/9/7 2:41,2.2,9,2.4,10,3,9
2015/9/7 2:42,2.1,9,2.1,10,2.6,9
2015/9/7 2:43,2.2,9,2.2,10,2.7,10
2015/9/7 2:44,2.2,9,2.2,10,3.1,10
2015/9/7 2:45,2.1,9,2.2,10,3.5,10
2015/9/7 2:46,2.2,10,2.2,10,3,11
2015/9/7 2:47,2.1,10,2.2,10,3.1,11
2015/9/7 2:48,2.1,10,2.1,10,3.6,16
2015/9/7 2:49,2.1,11,2.1,10,4.5,15
2015/9/7 2:50,2.1,11,2.1,9,3.5,11
2015/9/7 2:51,2.3,11,2.3,11,4.5,12
2015/9/7 2:52,2.3,12,2.3,11,3,13
2015/9/7 2:53,2.2,12,2.3,11,2.6,3
2015/9/7 2:54,2.3,12,2.3,11,3.3,4
2015/9/7 2:55,2.2,13,2.3,11,2.2,5
2015/9/7 2:56,2.1,14,2.2,11,1.9,5
2015/9/7 2:57,2.1,6,2.1,11,2.5,6
2015/9/7 2:58,2,6,2.1,11,1.6,8
2015/9/7 2:59,1.8,7,2,11,2.1,8
2015/9/7 3:00,1.6,7,1.7,11,1.9,8
2015/9/7 3:01,1.3,7,1.6,11,1,10
2015/9/7 3:02,1.3,7,1.3,12,1.8,10
2015/9/7 3:03,1.3,8,1.3,12,1.6,10
2015/9/7 3:04,1.2,8,1.2,13,2.9,10
2015/9/7 3:05,1.2,9,1.2,13,2.9,11
2015/9/7 3:06,1.2,9,1.2,15,2.1,9
2015/9/7 3:07,1.1,9,1.2,6,2.5,9
2015/9/7 3:08,1.3,9,1.3,6,3.8,8
2015/9/7 3:09,1.4,9,1.4,7,3,8
2015/9/7 3:10,1.5,9,1.5,7,2.9,11
2015/9/7 3:11,1.6,10,1.6,10,2.5,12
2015/9/7 3:12,1.6,10,1.6,10,1.4,10
2015/9/7 3:13,1.6,10,1.6,10,2.7,9
2015/9/7 3:14,1.5,9,1.6,10,2.1,9
2015/9/7 3:15,1.4,9,1.5,10,3,9
2015/9/7 3:16,1.4,9,1.4,10,2,10
2015/9/7 3:17,1.5,10,1.5,10,3.2,11
2015/9/7 3:18,1.5,10,1.5,10,4.4,10
2015/9/7 3:19,1.6,10,1.6,10,4.2,9
2015/9/7 3:20,1.7,10,1.7,10,4.5,9
2015/9/7 3:21,1.8,10,1.8,10,3.7,9
2015/9/7 3:22,1.9,10,1.9,10,2.7,9
2015/9/7 3:23,1.9,10,1.9,10,2,9
2015/9/7 3:24,1.8,10,1.9,10,0.5,6
2015/9/7 3:25,1.8,9,1.8,10,2.4,6
2015/9/7 3:26,2,9,2,9,3.7,8
2015/9/7 3:27,2.3,9,2.3,9,7.9,10
2015/9/7 3:28,2.3,8,2.4,8,6.1,6
2015/9/7 3:29,2.2,8,2.3,8,3.3,4
2015/9/7 3:30,2,8,2.2,8,2.5,7
2015/9/7 3:31,1.8,8,2,8,0.9,2
2015/9/7 3:32,1.7,7,1.8,8,2.9,16
2015/9/7 3:33,1.8,7,1.8,8,3.6,15
2015/9/7 3:34,2.1,6,2.1,8,4.8,16
2015/9/7 3:35,2.2,4,2.2,8,4.2,16
2015/9/7 3:36,2.1,2,2.2,8,4.3,1
2015/9/7 3:37,1.8,1,2.1,8,2.5,2
2015/9/7 3:38,1.6,1,1.8,8,2.5,9
2015/9/7 3:39,1.5,16,1.6,8,2.5,9
2015/9/7 3:40,1.5,16,1.5,5,1.5,9
2015/9/7 3:41,1.5,16,1.5,5,2.9,7
2015/9/7 3:42,1.5,16,1.6,5,1,7
2015/9/7 3:43,1.3,1,1.5,5,1.1,12
2015/9/7 3:44,1.1,16,1.3,5,1.8,16
2015/9/7 3:45,1,11,1.1,4,1.4,9
2015/9/7 3:46,0.9,11,1,1,2.2,9
2015/9/7 3:47,0.8,10,0.9,1,2,10
2015/9/7 3:48,0.8,11,0.8,1,2.2,10
2015/9/7 3:49,0.9,10,0.9,16,2.6,3
2015/9/7 3:50,0.9,10,0.9,16,1.8,4
2015/9/7 3:51,0.9,10,0.9,16,1.1,5
2015/9/7 3:52,1,10,1,16,2.2,9
2015/9/7 3:53,1.1,9,1.1,16,2.6,9
2015/9/7 3:54,1.2,9,1.2,9,2.6,9
2015/9/7 3:55,1.4,9,1.4,9,3.6,8
2015/9/7 3:56,1.5,9,1.5,8,3.7,11
2015/9/7 3:57,1.7,8,1.7,8,5.1,6
2015/9/7 3:58,1.8,8,1.8,8,4.7,11
2015/9/7 3:59,1.9,8,1.9,8,4.8,13
2015/9/7 4:00,2.1,9,2.1,9,5.6,7
2015/9/7 4:01,2.3,9,2.3,9,6.3,11
2015/9/7 4:02,2.3,9,2.3,9,3.9,14
2015/9/7 4:03,2.3,9,2.4,9,4.9,14
2015/9/7 4:04,2.3,11,2.3,9,1.1,1
2015/9/7 4:05,2.2,13,2.2,9,5.1,11
2015/9/7 4:06,2.3,11,2.3,9,7.7,9
2015/9/7 4:07,2.3,10,2.4,9,6.8,9
2015/9/7 4:08,2.4,11,2.4,9,4.5,9
2015/9/7 4:09,2.3,9,2.4,9,3.7,9
2015/9/7 4:10,2.1,10,2.3,9,1.8,9
2015/9/7 4:11,1.9,10,2,9,2.5,9
2015/9/7 4:12,1.9,9,2,9,2.5,8
2015/9/7 4:13,2.1,9,2.1,11,5.1,9
2015/9/7 4:14,2.3,9,2.3,11,4.7,9
2015/9/7 4:15,2.5,9,2.5,9,5.4,9
2015/9/7 4:16,2.3,9,2.5,9,3.9,9
2015/9/7 4:17,2.2,9,2.3,9,3.8,8
2015/9/7 4:18,2.2,9,2.3,9,4.3,9
2015/9/7 4:19,2.3,9,2.3,9,3.5,10
2015/9/7 4:20,2.4,9,2.4,9,3.9,11
2015/9/7 4:21,2.4,9,2.4,9,3.8,10
2015/9/7 4:22,2.6,10,2.6,9,4.4,11
2015/9/7 4:23,2.6,10,2.7,10,4.9,11
2015/9/7 4:24,2.5,10,2.6,10,4.4,8
2015/9/7 4:25,2.2,10,2.5,10,1.9,8
2015/9/7 4:26,2,10,2.2,10,1.5,11
2015/9/7 4:27,2,11,2,10,3.2,11
2015/9/7 4:28,1.9,11,2,10,3.1,11
2015/9/7 4:29,2,11,2,10,3.7,11
2015/9/7 4:30,2.1,11,2.1,10,3.8,11
2015/9/7 4:31,2.2,11,2.2,10,3.3,11
2015/9/7 4:32,2,11,2.2,10,2.4,10
2015/9/7 4:33,1.7,11,1.9,10,1.5,12
2015/9/7 4:34,1.7,11,1.7,10,2,12
2015/9/7 4:35,1.8,12,1.8,10,2.1,14
2015/9/7 4:36,1.9,12,1.9,11,2.4,15
2015/9/7 4:37,1.9,12,2,11,2.1,14
2015/9/7 4:38,1.8,13,1.9,11,1.6,14
2015/9/7 4:39,1.6,13,1.8,11,1.6,15
2015/9/7 4:40,1.5,13,1.6,11,2.5,12
2015/9/7 4:41,1.5,13,1.5,11,2.9,13
2015/9/7 4:42,1.6,13,1.6,12,2.7,11
2015/9/7 4:43,1.7,13,1.7,12,2.7,10
2015/9/7 4:44,1.7,13,1.7,12,2.7,9
2015/9/7 4:45,1.6,13,1.7,12,1.1,11
2015/9/7 4:46,1.6,12,1.6,12,1.8,11
2015/9/7 4:47,1.5,12,1.6,12,2.2,10
2015/9/7 4:48,1.5,11,1.5,13,2.4,10
2015/9/7 4:49,1.5,11,1.5,13,1.4,10
2015/9/7 4:50,1.4,10,1.5,13,2.6,8
2015/9/7 4:51,1.3,10,1.4,13,3.7,7
2015/9/7 4:52,1.2,10,1.3,13,1.6,8
2015/9/7 4:53,1.4,10,1.4,13,8.3,8
2015/9/7 4:54,1.7,9,1.7,13,7.5,7
2015/9/7 4:55,1.8,9,1.8,9,4.3,8
2015/9/7 4:56,1.9,9,1.9,9,4.7,9
2015/9/7 4:57,2.1,9,2.1,9,6.1,9
2015/9/7 4:58,2.3,8,2.3,8,5,10
2015/9/7 4:59,2.6,8,2.6,8,4.4,9
2015/9/7 5:00,2.6,8,2.6,8,3,11
2015/9/7 5:01,2.6,8,2.6,8,2.4,8
2015/9/7 5:02,2.6,8,2.6,8,1.9,8
2015/9/7 5:03,2.3,8,2.6,8,1.3,6
2015/9/7 5:04,2,8,2.3,8,3.9,9
2015/9/7 5:05,2,9,2,8,3.6,9
2015/9/7 5:06,1.9,9,2,8,2,10
2015/9/7 5:07,1.6,8,1.9,8,0.8,10
2015/9/7 5:08,1.3,8,1.6,8,0.9,15
2015/9/7 5:09,1.1,8,1.3,8,1.9,16
2015/9/7 5:10,1.1,9,1.1,9,1.6,14
2015/9/7 5:11,1.2,10,1.2,8,3.1,9
2015/9/7 5:12,1.3,10,1.3,8,4.1,11
2015/9/7 5:13,1.5,10,1.5,8,3.1,10
2015/9/7 5:14,1.5,11,1.5,8,4.5,9
2015/9/7 5:15,1.5,11,1.5,9,5.1,10
2015/9/7 5:16,1.6,11,1.6,9,4.5,11
2015/9/7 5:17,1.7,11,1.7,11,1.9,11
2015/9/7 5:18,1.9,11,1.9,11,2,9
2015/9/7 5:19,2,11,2,11,3.8,9
2015/9/7 5:20,2.1,10,2.1,11,3.8,10
2015/9/7 5:21,2,10,2.1,11,1.6,11
2015/9/7 5:22,1.8,10,2,11,1.9,1
2015/9/7 5:23,1.6,10,1.8,11,2,1
2015/9/7 5:24,1.7,11,1.7,11,4.9,12
2015/9/7 5:25,1.9,11,1.9,11,4.8,12
2015/9/7 5:26,1.8,11,1.9,11,2.9,10
2015/9/7 5:27,1.8,11,1.8,11,5.5,15
2015/9/7 5:28,2.1,12,2.1,11,12.7,16
2015/9/7 5:29,2.4,13,2.4,13,9.3,15
2015/9/7 5:30,2.5,14,2.5,13,6.8,1
2015/9/7 5:31,2.5,15,2.5,13,2.4,1
2015/9/7 5:32,2.6,14,2.6,15,3,16
2015/9/7 5:33,2.6,14,2.6,15,1.9,16
2015/9/7 5:34,2.7,15,2.7,14,9,1
2015/9/7 5:35,3,15,3,15,9.1,15
2015/9/7 5:36,3.1,16,3.1,15,7.5,14
2015/9/7 5:37,3.1,16,3.2,16,4.7,3
2015/9/7 5:38,3,16,3.1,16,5.6,2
2015/9/7 5:39,2.7,1,2.9,16,5.7,3
2015/9/7 5:40,2.6,1,2.7,16,4.1,3
2015/9/7 5:41,2.7,1,2.7,16,3.5,16
2015/9/7 5:42,2.7,1,2.7,16,3.2,1
2015/9/7 5:43,3.1,1,3.1,16,7.4,3
2015/9/7 5:44,3,1,3.2,16,6.7,3
2015/9/7 5:45,2.7,1,3,16,6.1,1
2015/9/7 5:46,2.9,1,2.9,16,6.7,1
2015/9/7 5:47,3.3,1,3.3,1,13.9,15
2015/9/7 5:48,3.7,1,3.7,1,16.3,16
2015/9/7 5:49,3.7,1,3.8,1,5.8,1
2015/9/7 5:50,3.7,16,3.8,1,5.5,15
2015/9/7 5:51,4.2,16,4.2,16,10.8,1
2015/9/7 5:52,4.2,16,4.3,16,4.9,15
2015/9/7 5:53,4.2,16,4.3,16,5.5,16
2015/9/7 5:54,4.4,16,4.4,16,10,15
2015/9/7 5:55,4.5,16,4.5,16,11.4,16
2015/9/7 5:56,4.6,16,4.6,16,8.3,16
2015/9/7 5:57,4.4,16,4.7,16,7.8,16
2015/9/7 5:58,4.1,16,4.3,16,10.9,16
2015/9/7 5:59,4.4,16,4.4,16,12.7,16
2015/9/7 6:00,4.7,16,4.7,16,11.1,2
2015/9/7 6:01,4.1,16,4.6,16,3.9,1
2015/9/7 6:02,4.2,16,4.2,16,9.9,15
2015/9/7 6:03,4.3,16,4.4,16,10.1,1
2015/9/7 6:04,4.2,16,4.2,16,8.2,15
2015/9/7 6:05,4.2,1,4.3,16,9,16
2015/9/7 6:06,4.1,1,4.1,16,8.2,1
2015/9/7 6:07,4.1,1,4.2,16,7.7,13
2015/9/7 6:08,3.9,1,4.1,16,5.4,16
2015/9/7 6:09,3.7,1,3.9,16,6.5,4
2015/9/7 6:10,3.6,1,3.7,16,8.9,4
2015/9/7 6:11,3.9,1,3.9,16,7.8,2
2015/9/7 6:12,4,2,4.1,16,9.3,6
2015/9/7 6:13,3.8,2,4,1,5,16
2015/9/7 6:14,3.7,2,3.9,1,4.4,6
2015/9/7 6:15,3.8,2,3.8,1,9.4,2
2015/9/7 6:16,3.7,2,3.8,1,13.2,3
2015/9/7 6:17,3.6,2,3.7,1,9.1,4
2015/9/7 6:18,3.7,2,3.7,1,7.5,2
2015/9/7 6:19,3.8,2,3.9,1,9,3
2015/9/7 6:20,3.9,2,3.9,1,13.1,16
2015/9/7 6:21,4,2,4,1,8.1,1
2015/9/7 6:22,4,2,4,2,7.1,3
2015/9/7 6:23,4,2,4,2,6.9,2
2015/9/7 6:24,4.3,2,4.3,2,11.3,16
2015/9/7 6:25,4.2,1,4.3,2,8.1,4
2015/9/7 6:26,4.2,2,4.4,2,8.7,4
2015/9/7 6:27,4.3,2,4.3,2,9.3,7
2015/9/7 6:28,4.3,2,4.4,2,11.5,2
2015/9/7 6:29,4.4,2,4.4,2,14,4
2015/9/7 6:30,4.3,3,4.4,2,9,3
2015/9/7 6:31,4,3,4.3,2,3.8,2
2015/9/7 6:32,3.6,2,3.9,2,1.8,13
2015/9/7 6:33,3.8,3,3.8,2,9.8,3
2015/9/7 6:34,3.7,3,3.8,2,10.5,7
2015/9/7 6:35,3.9,4,4,2,12.4,7
2015/9/7 6:36,4.1,4,4.1,2,9,9
2015/9/7 6:37,3.9,4,4.1,2,4.3,15
2015/9/7 6:38,3.8,4,3.9,2,4.8,10
2015/9/7 6:39,3.3,4,3.8,2,4.4,2
2015/9/7 6:40,3.2,6,3.3,2,6.4,8
2015/9/7 6:41,3.3,6,3.3,4,5.5,5
2015/9/7 6:42,3.4,7,3.4,4,2.7,12
2015/9/7 6:43,3.3,7,3.5,4,6.5,16
2015/9/7 6:44,3,7,3.2,4,5.7,3
2015/9/7 6:45,2.7,6,3,4,4.4,6
2015/9/7 6:46,2.5,5,2.8,4,5.7,5
2015/9/7 6:47,2.6,5,2.7,4,7.1,6
2015/9/7 6:48,2.4,5,2.6,4,1.9,1
2015/9/7 6:49,2.4,5,2.4,7,2.2,2
2015/9/7 6:50,2.1,5,2.4,7,0.6,7
2015/9/7 6:51,1.9,5,2,7,1.9,1
2015/9/7 6:52,2,5,2,7,3.6,6
2015/9/7 6:53,1.8,6,2,7,4.3,13
2015/9/7 6:54,1.8,6,1.9,7,6.3,10
2015/9/7 6:55,1.8,6,1.8,6,6.3,1
2015/9/7 6:56,2,5,2,5,8.5,14
2015/9/7 6:57,2.1,5,2.1,5,7.5,5
2015/9/7 6:58,2.4,5,2.4,5,7.8,15
2015/9/7 6:59,2.6,4,2.6,5,5.5,16
2015/9/7 7:00,3.1,2,3.1,2,13.6,16
2015/9/7 7:01,3.7,1,3.7,1,11.5,1
2015/9/7 7:02,3.7,1,3.8,1,6.1,1
2015/9/7 7:03,3.9,16,3.9,16,13.5,1
2015/9/7 7:04,4.1,1,4.1,1,15.3,16
2015/9/7 7:05,4.3,1,4.3,1,8.3,3
2015/9/7 7:06,4.2,1,4.3,1,6.5,2
2015/9/7 7:07,4.1,1,4.2,1,5.1,8
2015/9/7 7:08,3.9,1,4.1,1,5,11
2015/9/7 7:09,3.9,1,3.9,1,7.6,8
2015/9/7 7:10,3.5,2,3.9,1,6.9,9
2015/9/7 7:11,3.1,3,3.5,1,4.5,5
2015/9/7 7:12,3,4,3.1,1,2.9,9
2015/9/7 7:13,2.9,5,3.1,1,6.7,10
2015/9/7 7:14,2.8,6,2.8,1,4.5,1
2015/9/7 7:15,2.6,6,2.9,1,5.1,2
2015/9/7 7:16,2.5,6,2.6,1,5.2,3
2015/9/7 7:17,2.3,6,2.5,1,2.7,6
2015/9/7 7:18,2.3,5,2.3,1,4.4,5
2015/9/7 7:19,2.3,5,2.3,1,6.1,4
2015/9/7 7:20,2.4,5,2.4,2,5,5
2015/9/7 7:21,2.3,5,2.4,3,3.6,9
2015/9/7 7:22,2.3,5,2.4,4,3,9
2015/9/7 7:23,2.2,5,2.3,5,4.9,8
2015/9/7 7:24,2.3,6,2.3,5,5.6,10
2015/9/7 7:25,2.4,6,2.4,6,9.1,1
2015/9/7 7:26,2.3,7,2.3,6,3.2,9
2015/9/7 7:27,2.3,7,2.3,5,3.8,10
2015/9/7 7:28,2.4,7,2.4,5,4.7,8
2015/9/7 7:29,2.5,7,2.5,7,7.7,2
2015/9/7 7:30,2.6,7,2.6,7,7.9,3
2015/9/7 7:31,2.8,6,2.8,6,7.4,16
2015/9/7 7:32,2.9,5,3,5,8.6,3
2015/9/7 7:33,3,4,3,5,8.4,16
2015/9/7 7:34,3,4,3,5,8.6,1
2015/9/7 7:35,3.1,3,3.1,3,9.4,3
2015/9/7 7:36,3.3,3,3.3,3,8.1,1
2015/9/7 7:37,3.4,3,3.4,3,6.4,3
2015/9/7 7:38,3.5,2,3.5,3,6.7,15
2015/9/7 7:39,3.6,2,3.6,2,9.5,2
2015/9/7 7:40,3.4,2,3.6,2,8.7,1
2015/9/7 7:41,3.6,2,3.6,2,10,3
2015/9/7 7:42,4.1,2,4.1,2,10,3
2015/9/7 7:43,4.2,2,4.2,2,8.6,4
2015/9/7 7:44,4.1,3,4.1,2,5.6,5
2015/9/7 7:45,3.9,3,4.1,2,6.1,3
2015/9/7 7:46,4.2,3,4.2,2,11.5,4
2015/9/7 7:47,4.7,3,4.7,3,15.9,16
2015/9/7 7:48,5,2,5,2,14.9,16
2015/9/7 7:49,4.7,2,5,2,4.1,1
2015/9/7 7:50,4.5,2,4.6,2,3.2,14
2015/9/7 7:51,4.4,2,4.5,2,7.4,2
2015/9/7 7:52,4.2,2,4.3,2,9.9,2
2015/9/7 7:53,4.1,2,4.2,2,9.5,2
2015/9/7 7:54,4.3,2,4.3,2,9.1,16
2015/9/7 7:55,4.3,1,4.3,2,7.1,6
2015/9/7 7:56,4.2,1,4.3,2,15.2,16
2015/9/7 7:57,3.9,1,4.3,2,13.2,16
2015/9/7 7:58,3.8,2,3.8,2,9.3,4
2015/9/7 7:59,4,2,4,2,10.1,5
2015/9/7 8:00,4.2,2,4.2,2,7.6,1
2015/9/7 8:01,3.9,2,4.2,2,3,9
2015/9/7 8:02,3.6,2,3.8,2,3.7,16
2015/9/7 8:03,3.5,2,3.6,2,6.5,3
2015/9/7 8:04,3.5,2,3.5,2,7.5,3
2015/9/7 8:05,3.4,2,3.4,1,5.6,3
2015/9/7 8:06,3.1,2,3.4,1,6,3
2015/9/7 8:07,2.8,3,3.1,2,4.7,4
2015/9/7 8:08,2.6,2,2.8,2,7.2,3
2015/9/7 8:09,2.3,3,2.6,2,2.2,6
2015/9/7 8:10,2.2,2,2.3,2,2.6,11
2015/9/7 8:11,2.5,2,2.5,2,7.4,4
2015/9/7 8:12,2.8,3,2.8,2,7.2,4
2015/9/7 8:13,3.1,3,3.1,2,7,6
2015/9/7 8:14,3.1,4,3.1,2,7,5
2015/9/7 8:15,3,5,3.1,2,3,6
2015/9/7 8:16,3,5,3.1,3,2.4,6
2015/9/7 8:17,3,5,3,3,3.1,4
2015/9/7 8:18,3,5,3,3,5.2,6
2015/9/7 8:19,3.2,6,3.2,6,5.1,5
2015/9/7 8:20,3.5,6,3.5,6,5.1,5
2015/9/7 8:21,3.1,6,3.5,6,3.1,14
2015/9/7 8:22,2.8,6,3.1,6,4.3,5
2015/9/7 8:23,2.6,6,2.8,6,4.9,7
2015/9/7 8:24,2.4,6,2.6,6,3.2,4
2015/9/7 8:25,2.3,6,2.4,6,2.7,15
2015/9/7 8:26,2.2,6,2.3,6,1,5
2015/9/7 8:27,2.3,6,2.3,6,5,6
2015/9/7 8:28,2.1,7,2.3,6,4.3,8
2015/9/7 8:29,1.9,7,2,6,3.3,14
2015/9/7 8:30,1.8,8,1.9,6,5,16
2015/9/7 8:31,2,8,2,6,7.5,2
2015/9/7 8:32,2.1,6,2.1,6,6,3
2015/9/7 8:33,2.4,5,2.4,6,11.4,2
2015/9/7 8:34,2.7,3,2.7,3,8.1,1
2015/9/7 8:35,2.8,3,2.8,3,8.4,16
2015/9/7 8:36,3,2,3,2,10.8,15
2015/9/7 8:37,3,1,3.1,2,4.8,3
2015/9/7 8:38,3.5,2,3.5,2,11.5,1
2015/9/7 8:39,3.6,2,3.6,2,6.9,2
2015/9/7 8:40,3.7,2,3.8,2,6.2,3
2015/9/7 8:41,4.2,2,4.2,2,12.7,3
2015/9/7 8:42,4.1,2,4.2,2,6.4,3
2015/9/7 8:43,3.6,2,4,2,4.3,5
2015/9/7 8:45,3.4,4,3.4,4,7.4,3
2015/9/7 8:47,2.3,16,2.6,16,2.7,2
2015/9/7 8:48,1.9,3,2.5,16,3.1,3
2015/9/7 8:50,1.4,6,2.1,7,2.2,7
2015/9/7 8:51,1.8,6,1.8,7,3.2,5
2015/9/7 8:57,7.4,2,7.4,2,7.4,2
2015/9/7 8:58,3.9,16,7.4,2,7.5,2
2015/9/7 8:59,3.8,2,4.1,2,8.5,1
2015/9/7 9:00,3.7,1,3.8,2,10.1,1
2015/9/7 9:01,3.8,2,3.8,2,8.6,3
2015/9/7 9:02,3.8,2,4,2,10.5,3
2015/9/7 9:03,3.5,2,3.7,2,4.1,15
2015/9/7 9:04,3.5,2,3.5,2,8.9,2
2015/9/7 9:05,3.5,2,3.5,2,7.2,2
2015/9/7 9:06,3.8,2,3.8,2,7.8,3
2015/9/7 9:07,3.9,3,3.9,2,7,5
2015/9/7 9:08,3.9,3,4,16,9.3,8
2015/9/7 9:09,4,3,4,2,9.1,16
2015/9/7 9:10,3.9,3,4.1,3,11.6,1
2015/9/7 9:11,3.6,3,3.9,3,4.2,15
2015/9/7 9:12,3.4,3,3.6,3,4.7,7
2015/9/7 9:13,3.6,4,3.6,3,9.3,2
2015/9/7 9:14,3.9,3,3.9,3,10.1,16
2015/9/7 9:15,3.8,3,3.9,3,4.7,3
2015/9/7 9:16,3.4,4,3.8,3,4.5,9
2015/9/7 9:17,3.1,3,3.3,3,5.1,9
2015/9/7 9:18,2.8,2,3,3,6.1,8
2015/9/7 9:19,2.7,7,2.8,3,4.1,12
2015/9/7 9:20,2.5,9,2.6,3,3.5,9
2015/9/7 9:21,2.7,9,2.7,3,4.7,8
2015/9/7 9:22,2.7,9,2.7,3,3.1,9
2015/9/7 9:23,2.5,9,2.7,3,3.1,8
2015/9/7 9:24,2.1,9,2.5,3,4.7,8
2015/9/7 9:25,2.1,9,2.1,3,4.2,8
2015/9/7 9:26,2,9,2.1,4,3.7,9
2015/9/7 9:27,2,9,2.1,3,3.3,7
2015/9/7 9:28,1.9,8,2,2,2.2,6
2015/9/7 9:29,1.9,8,1.9,8,4.9,15
2015/9/7 9:30,1.9,8,1.9,8,3.6,9
2015/9/7 9:31,1.8,8,1.9,9,3,9
2015/9/7 9:32,1.7,8,1.8,9,2.1,9
2015/9/7 9:33,1.7,9,1.8,9,2.9,10
2015/9/7 9:34,1.6,9,1.7,9,3.2,9
2015/9/7 9:35,1.6,9,1.6,9,4.3,8
2015/9/7 9:36,1.6,9,1.6,9,3.7,9
2015/9/7 9:37,1.6,9,1.7,9,3,10
2015/9/7 9:38,1.7,9,1.7,8,2.1,8
2015/9/7 9:39,1.8,9,1.8,8,4.9,9
2015/9/7 9:40,1.9,9,1.9,8,5.4,9
2015/9/7 9:41,2.1,9,2.1,9,4.9,8
2015/9/7 9:42,2.3,9,2.3,9,5,10
2015/9/7 9:43,2.4,9,2.4,9,5.1,9
2015/9/7 9:44,2.5,9,2.5,9,4.7,9
2015/9/7 9:45,2.5,9,2.6,9,3.7,9
2015/9/7 9:46,2.5,9,2.5,9,4.2,10
2015/9/7 9:47,2.7,9,2.7,9,4.4,11
2015/9/7 9:48,2.9,10,2.9,9,4.9,10
2015/9/7 9:49,2.9,10,2.9,9,6.2,9
2015/9/7 9:50,2.8,10,2.9,9,4.7,9
2015/9/7 9:51,2.9,10,2.9,9,5,9
2015/9/7 9:52,3,10,3,10,6.1,9
2015/9/7 9:53,3.1,10,3.1,10,6,9
2015/9/7 9:54,3.1,10,3.1,10,5.7,9
2015/9/7 9:55,3.3,10,3.3,10,6.5,9
2015/9/7 9:56,3.4,10,3.4,10,6,9
2015/9/7 9:57,3.3,10,3.4,10,4.8,9
2015/9/7 9:58,3.3,9,3.3,10,5,9
2015/9/7 9:59,3.2,9,3.3,10,4.4,10
2015/9/7 10:00,3.1,9,3.2,10,3.9,9
2015/9/7 10:01,3,9,3.2,10,4.3,8
2015/9/7 10:02,2.9,9,3,10,5,9
2015/9/7 10:03,2.9,9,2.9,10,5.1,10
2015/9/7 10:04,2.8,9,2.9,10,3.9,9
2015/9/7 10:05,2.5,10,2.8,10,4.1,10
2015/9/7 10:06,2.5,10,2.5,10,3.2,11
2015/9/7 10:07,2.4,10,2.5,10,3.5,11
2015/9/7 10:08,2.3,10,2.4,9,2.7,11
2015/9/7 10:09,2.1,10,2.3,9,2,10
2015/9/7 10:10,2,11,2.1,9,0.8,10
2015/9/7 10:11,1.8,11,1.9,9,1.5,9
2015/9/7 10:12,1.7,10,1.8,9,2.4,10
2015/9/7 10:13,1.4,10,1.6,9,1.8,8
2015/9/7 10:14,1.3,10,1.4,10,2.1,9
2015/9/7 10:15,1.4,10,1.4,10,3.7,5
2015/9/7 10:16,1.5,9,1.5,10,4.7,5
2015/9/7 10:17,1.6,8,1.6,10,4.3,5
2015/9/7 10:18,1.6,7,1.6,10,2.6,1
2015/9/7 10:19,1.7,6,1.7,10,3.5,3
2015/9/7 10:20,1.8,6,1.8,11,2.2,5
2015/9/7 10:21,1.8,5,1.9,5,3.9,1
2015/9/7 10:22,1.9,5,1.9,5,2.9,2
2015/9/7 10:23,2,4,2,4,3.5,4
2015/9/7 10:24,2.2,4,2.2,4,5.1,3
2015/9/7 10:25,2.3,4,2.3,4,3.9,3
2015/9/7 10:26,2.3,3,2.3,4,4.9,3
2015/9/7 10:27,2.1,3,2.3,4,4.2,3
2015/9/7 10:28,2.1,3,2.1,4,2.7,4
2015/9/7 10:29,2.1,3,2.1,4,4.2,1
2015/9/7 10:30,2.2,3,2.2,4,4.5,1
2015/9/7 10:31,2.2,2,2.2,4,3.2,3
2015/9/7 10:32,2.1,3,2.2,4,1.5,3
2015/9/7 10:33,2,3,2.1,4,3.2,5
2015/9/7 10:34,1.9,3,2,4,3.6,5
2015/9/7 10:35,1.9,3,1.9,3,3.9,4
2015/9/7 10:36,1.7,3,1.9,3,2.1,1
2015/9/7 10:37,1.7,3,1.7,3,4.1,16
2015/9/7 10:38,1.9,3,1.9,3,4.3,3
2015/9/7 10:39,1.9,3,2,3,4.8,3
2015/9/7 10:40,2.1,3,2.1,3,6,2
2015/9/7 10:41,2,4,2.1,2,3.5,6
2015/9/7 10:42,2.1,3,2.1,3,2.6,5
2015/9/7 10:43,2.4,3,2.4,3,6.7,5
2015/9/7 10:44,2.5,4,2.5,4,4.5,5
2015/9/7 10:45,2.6,4,2.6,4,6.2,6
2015/9/7 10:46,2.9,4,2.9,4,6.9,5
2015/9/7 10:47,3,5,3,4,7.5,5
2015/9/7 10:48,2.8,5,3,4,3.7,6
2015/9/7 10:49,2.8,5,2.8,4,3.3,6
2015/9/7 10:50,2.8,5,2.8,4,5.5,5
2015/9/7 10:51,2.8,5,2.9,4,4.9,5
2015/9/7 10:52,3.1,5,3.1,5,5.1,3
2015/9/7 10:53,3,5,3.1,5,5.4,4
2015/9/7 10:54,2.9,5,3.1,5,5.4,3
2015/9/7 10:55,2.9,5,2.9,5,5.2,4
2015/9/7 10:56,2.7,5,2.9,5,4.7,5
2015/9/7 10:57,2.8,4,2.8,5,5.8,3
2015/9/7 10:58,2.7,4,2.8,5,2.5,2
2015/9/7 10:59,2.7,4,2.7,5,5.6,5
2015/9/7 11:00,2.8,4,2.8,5,5.7,5
2015/9/7 11:01,2.9,4,2.9,5,4.8,5
2015/9/7 11:02,2.8,4,2.9,5,4.7,5
2015/9/7 11:03,2.7,4,2.8,5,4.2,5
2015/9/7 11:04,2.7,4,2.7,5,4.9,2
2015/9/7 11:05,2.8,4,2.8,5,5.1,3
2015/9/7 11:06,2.8,4,2.9,4,4.2,3
2015/9/7 11:07,2.7,4,2.8,4,3,3
2015/9/7 11:08,2.6,4,2.7,4,2.5,6
2015/9/7 11:09,2.7,4,2.7,4,3.5,6
2015/9/7 11:10,2.4,4,2.6,4,2.9,6
2015/9/7 11:11,2.3,4,2.4,4,2.5,1
2015/9/7 11:12,2.2,3,2.3,4,2.5,2
2015/9/7 11:13,2.2,3,2.2,4,4.7,1
2015/9/7 11:14,2.2,3,2.2,4,4.3,2
2015/9/7 11:15,2.1,3,2.2,4,6,4
2015/9/7 11:16,2.2,3,2.2,4,6.3,5
2015/9/7 11:17,2,3,2.2,4,2,3
2015/9/7 11:18,2,4,2,4,1.6,7
2015/9/7 11:19,2,4,2,4,3.1,7
2015/9/7 11:20,2,4,2,4,3.7,7
2015/9/7 11:21,2,5,2.1,4,3.3,8
2015/9/7 11:22,2,5,2,3,2.2,6
2015/9/7 11:23,1.9,6,2,3,3.2,6
2015/9/7 11:24,1.7,6,1.9,3,2,7
2015/9/7 11:25,1.7,6,1.7,3,2.7,6
2015/9/7 11:26,1.6,6,1.6,3,6.2,2
2015/9/7 11:27,1.9,6,1.9,4,5.2,3
2015/9/7 11:28,2.2,5,2.2,5,4.4,2
2015/9/7 11:29,2.2,5,2.2,5,2.6,2
2015/9/7 11:30,2,4,2.1,5,2,2
2015/9/7 11:31,2.2,4,2.2,5,5.2,2
2015/9/7 11:32,2.3,3,2.3,3,3.9,2
2015/9/7 11:33,2.5,3,2.5,3,8.1,3
2015/9/7 11:34,2.7,2,2.7,2,6.2,1
2015/9/7 11:35,2.8,2,2.8,2,5.8,3
2015/9/7 11:36,2.7,2,2.8,2,3.8,3
2015/9/7 11:37,2.6,2,2.7,2,3.9,2
2015/9/7 11:38,2.4,2,2.6,2,3.1,2
2015/9/7 11:39,2.5,2,2.5,2,3.8,1
2015/9/7 11:40,2.8,2,2.8,2,6.3,15
2015/9/7 11:41,3.1,2,3.1,2,7.8,16
2015/9/7 11:42,3.3,1,3.3,1,9.2,15
2015/9/7 11:43,3.4,1,3.4,1,9.3,15
2015/9/7 11:44,3.4,1,3.4,1,7.2,1
2015/9/7 11:45,3.6,1,3.6,1,8.4,1
2015/9/7 11:46,3.5,1,3.6,1,5.8,16
2015/9/7 11:47,3.5,1,3.5,1,3.7,2
2015/9/7 11:48,3.6,1,3.6,1,5,5
2015/9/7 11:49,3.7,2,3.7,1,4.3,4
2015/9/7 11:50,3.6,1,3.7,1,6.2,15
2015/9/7 11:51,3.3,2,3.6,1,3.6,13
2015/9/7 11:52,3.2,2,3.3,1,5.5,1
2015/9/7 11:53,3,2,3.1,1,3.5,4
2015/9/7 11:54,2.8,2,3,1,3.5,16
2015/9/7 11:55,2.7,2,2.8,1,7.4,3
2015/9/7 11:56,2.9,2,2.9,1,4.9,3
2015/9/7 11:57,3.1,2,3.1,1,5.2,3